Listerhav — ZDKC7 — position and weather

sailwx.info

Track history (hours):
 
Tides and Currents Weather Stations Pressure Air Temp Water Temp Dewpoint Dewpoint Depression Visibility Wind Speed Wind Dir Waves Ship Positions

Listerhav

Last reported at 2014-Sep-03 01:34 UTC. Time now 2014-Sep-03 02:32 UTC.
Position N 54°13' E 012°01'.

Length 88 m; draft 5.9 m.

Type: Cargo ship. MMSI: 236591000.

Date/timePositionNaut miles runAvg speedWind from/ knotsBaromVisibWave heightAir tempDewpointWater temp
2014-Sep-03 01:34N 54°13' E 012°01'0 0.0
2014-Sep-03 00:34N 54°13' E 012°01'0 0.0
2014-Sep-02 23:31N 54°13' E 012°01'0 0.0
2014-Sep-02 22:34N 54°13' E 012°01'0 0.0
2014-Sep-02 21:34N 54°13' E 012°01'0 0.0
2014-Sep-02 20:33N 54°13' E 012°01'0 0.0
2014-Sep-02 19:28N 54°13' E 012°01'0 0.0
2014-Sep-02 18:34N 54°13' E 012°01'0 0.0
2014-Sep-02 17:33N 54°13' E 012°01'0 0.0
2014-Sep-02 16:33N 54°13' E 012°01'0 0.0
2014-Sep-02 15:34N 54°13' E 012°01'0 0.0
2014-Sep-02 14:32N 54°13' E 012°01'0 0.0
2014-Sep-02 13:33N 54°13' E 012°01'0 0.0
2014-Sep-02 12:33N 54°13' E 012°01'0 0.0
2014-Sep-02 11:33N 54°13' E 012°01'0 0.0
2014-Sep-02 10:34N 54°13' E 012°01'0 0.0
2014-Sep-02 09:33N 54°13' E 012°01'0 0.0
2014-Sep-02 08:33N 54°13' E 012°01'0 0.0
2014-Sep-02 07:33N 54°13' E 012°01'6 5.7
2014-Sep-02 06:33N 54°18' E 012°01'9 9.3
2014-Sep-02 05:34N 54°26' E 012°10'9 9.3
2014-Sep-02 04:33N 54°35' E 012°14'9 8.9
2014-Sep-02 03:34N 54°41' E 012°26'9 8.9
2014-Sep-02 02:33N 54°46' E 012°39'8 8.4
2014-Sep-02 01:33N 54°49' E 012°53'8 8.3
2014-Sep-02 00:34N 54°52' E 013°06'13 9.1
2014-Sep-01 23:09N 54°57' E 013°27'5 8.8
2014-Sep-01 22:34N 54°58' E 013°36'9 9.0
2014-Sep-01 21:34N 55°02' E 013°50'9 8.6
2014-Sep-01 20:34N 55°05' E 014°04'9 8.6
2014-Sep-01 19:34N 55°12' E 014°13'9 8.9
2014-Sep-01 18:34N 55°19' E 014°23'9 9.0
2014-Sep-01 17:33N 55°25' E 014°33'9 8.7
2014-Sep-01 16:33N 55°30' E 014°47'8 8.5
2014-Sep-01 15:34N 55°34' E 014°59'9 8.8
2014-Sep-01 14:33N 55°39' E 015°13'35 8.7
2014-Sep-01 10:33N 55°56' E 016°06'10 8.6
2014-Sep-01 09:25N 56°01' E 016°21'  
2014-Aug-29 01:15N 57°06' E 018°56'6 8.7
2014-Aug-29 00:33N 57°01' E 018°49'9 8.9
2014-Aug-28 23:34N 56°54' E 018°38'48 9.2
2014-Aug-28 18:16N 56°23' E 017°32'109 9.2
2014-Aug-28 06:26N 55°26' E 014°45'8 9.0
2014-Aug-28 05:34N 55°20' E 014°35'9 9.0
2014-Aug-28 04:33N 55°14' E 014°25'9 9.1
2014-Aug-28 03:34N 55°07' E 014°14'9 8.9
2014-Aug-28 02:33N 55°00' E 014°04'9 9.0
2014-Aug-28 01:33N 54°57' E 013°49'9 8.9
2014-Aug-28 00:34N 54°54' E 013°34'9 8.9
2014-Aug-27 23:34N 54°51' E 013°20'8 8.5
2014-Aug-27 22:34N 54°48' E 013°06'9 8.5
2014-Aug-27 21:34N 54°44' E 012°53'9 8.7
2014-Aug-27 20:33N 54°40' E 012°40'9 9.0
2014-Aug-27 19:34N 54°35' E 012°27'9 8.7
2014-Aug-27 18:34N 54°29' E 012°16'9 8.8
2014-Aug-27 17:34N 54°21' E 012°08'9 8.8
2014-Aug-27 16:33N 54°13' E 012°05'4 4.0
2014-Aug-27 15:30N 54°09' E 012°07'0 0.0
2014-Aug-27 14:33N 54°09' E 012°07'0 0.0
2014-Aug-27 13:30N 54°09' E 012°07'0 0.0
2014-Aug-27 12:33N 54°09' E 012°07'0 0.0
2014-Aug-27 11:27N 54°09' E 012°07'0 0.0
2014-Aug-27 10:33N 54°09' E 012°07'0 0.0
2014-Aug-27 09:27N 54°09' E 012°07'0 0.0
2014-Aug-27 08:30N 54°09' E 012°07'0 0.0
2014-Aug-27 07:30N 54°09' E 012°07'0 0.0
2014-Aug-27 06:06N 54°09' E 012°07'0 0.0
2014-Aug-27 05:33N 54°09' E 012°07'0 0.0
2014-Aug-27 04:15N 54°09' E 012°07'0 0.0
2014-Aug-27 03:33N 54°09' E 012°07'0 0.0
2014-Aug-27 02:33N 54°09' E 012°07'0 0.0
2014-Aug-27 01:33N 54°09' E 012°07'0 0.0
2014-Aug-27 00:33N 54°09' E 012°07'0 0.0
2014-Aug-26 23:33N 54°09' E 012°07'0 0.0
2014-Aug-26 22:33N 54°09' E 012°07'0 0.0
2014-Aug-26 21:33N 54°09' E 012°07'0 0.0
2014-Aug-26 20:30N 54°09' E 012°07'0 0.0
2014-Aug-26 19:30N 54°09' E 012°07'0 0.0
2014-Aug-26 18:32N 54°09' E 012°07'0 0.0
2014-Aug-26 17:11N 54°09' E 012°07'0 0.0
2014-Aug-26 15:26N 54°09' E 012°07'0 0.0
2014-Aug-26 14:32N 54°09' E 012°07'0 0.0
2014-Aug-26 13:32N 54°09' E 012°07'0 0.0
2014-Aug-26 12:32N 54°09' E 012°07'0 0.0
2014-Aug-26 11:20N 54°09' E 012°07'0 0.0
2014-Aug-26 10:14N 54°09' E 012°07'0 0.0
2014-Aug-26 09:29N 54°09' E 012°07'0 0.0
2014-Aug-26 07:29N 54°09' E 012°07'0 0.0
2014-Aug-26 06:32N 54°09' E 012°07'0 0.0
2014-Aug-26 05:32N 54°09' E 012°07'0 0.0
2014-Aug-26 04:32N 54°09' E 012°07'0 0.0
2014-Aug-26 03:29N 54°09' E 012°07'0 0.0
2014-Aug-26 02:29N 54°09' E 012°07'0 0.0
2014-Aug-26 00:32N 54°09' E 012°07'0 0.0
2014-Aug-25 23:29N 54°09' E 012°07'0 0.0
2014-Aug-25 21:32N 54°09' E 012°07'0 0.0
2014-Aug-25 18:23N 54°09' E 012°07'0 0.0
2014-Aug-25 17:23N 54°09' E 012°07'0 0.0
2014-Aug-25 16:14N 54°09' E 012°07'0 0.0
2014-Aug-25 15:14N 54°09' E 012°07'0 0.0
2014-Aug-25 14:32N 54°09' E 012°07'1 1.1
2014-Aug-25 13:33N 54°10' E 012°06'3 3.0
2014-Aug-25 12:34N 54°12' E 012°04'7 6.8
2014-Aug-25 11:33N 54°19' E 012°03'7 7.4
2014-Aug-25 10:33N 54°26' E 012°09'7 7.4
2014-Aug-25 09:33N 54°33' E 012°13'7 6.9
2014-Aug-25 08:33N 54°38' E 012°20'8 7.6
2014-Aug-25 07:32N 54°43' E 012°31'8 7.8
2014-Aug-25 06:33N 54°47' E 012°42'8 7.8
2014-Aug-25 05:33N 54°50' E 012°55'8 8.4
2014-Aug-25 04:33N 54°53' E 013°08'16 7.7
2014-Aug-25 02:32N 54°58' E 013°34'24 7.1
2014-Aug-24 23:07N 55°10' E 014°11'4 7.2
2014-Aug-24 22:30N 55°13' E 014°16'7 7.6
2014-Aug-24 21:31N 55°19' E 014°24'8 8.4
2014-Aug-24 20:33N 55°25' E 014°33'  
Track history (hours):
 
Tides and Currents Weather Stations Pressure Air Temp Water Temp Dewpoint Dewpoint Depression Visibility Wind Speed Wind Dir Waves Ship Positions

Listerhav

Last reported at 2014-Sep-03 01:34 UTC. Time now 2014-Sep-03 02:32 UTC.
Position N 54°13' E 012°01'.

Length 88 m; draft 5.9 m.

Type: Cargo ship. MMSI: 236591000.

Date/timePositionNaut miles runAvg speedWind from/ knotsBaromVisibWave heightAir tempDewpointWater temp
2014-Sep-03 01:34N 54°13' E 012°01'0 0.0
2014-Sep-03 00:34N 54°13' E 012°01'0 0.0
2014-Sep-02 23:31N 54°13' E 012°01'0 0.0
2014-Sep-02 22:34N 54°13' E 012°01'0 0.0
2014-Sep-02 21:34N 54°13' E 012°01'0 0.0
2014-Sep-02 20:33N 54°13' E 012°01'0 0.0
2014-Sep-02 19:28N 54°13' E 012°01'0 0.0
2014-Sep-02 18:34N 54°13' E 012°01'0 0.0
2014-Sep-02 17:33N 54°13' E 012°01'0 0.0
2014-Sep-02 16:33N 54°13' E 012°01'0 0.0
2014-Sep-02 15:34N 54°13' E 012°01'0 0.0
2014-Sep-02 14:32N 54°13' E 012°01'0 0.0
2014-Sep-02 13:33N 54°13' E 012°01'0 0.0
2014-Sep-02 12:33N 54°13' E 012°01'0 0.0
2014-Sep-02 11:33N 54°13' E 012°01'0 0.0
2014-Sep-02 10:34N 54°13' E 012°01'0 0.0
2014-Sep-02 09:33N 54°13' E 012°01'0 0.0
2014-Sep-02 08:33N 54°13' E 012°01'0 0.0
2014-Sep-02 07:33N 54°13' E 012°01'6 5.7
2014-Sep-02 06:33N 54°18' E 012°01'9 9.3
2014-Sep-02 05:34N 54°26' E 012°10'9 9.3
2014-Sep-02 04:33N 54°35' E 012°14'9 8.9
2014-Sep-02 03:34N 54°41' E 012°26'9 8.9
2014-Sep-02 02:33N 54°46' E 012°39'8 8.4
2014-Sep-02 01:33N 54°49' E 012°53'8 8.3
2014-Sep-02 00:34N 54°52' E 013°06'13 9.1
2014-Sep-01 23:09N 54°57' E 013°27'5 8.8
2014-Sep-01 22:34N 54°58' E 013°36'9 9.0
2014-Sep-01 21:34N 55°02' E 013°50'9 8.6
2014-Sep-01 20:34N 55°05' E 014°04'9 8.6
2014-Sep-01 19:34N 55°12' E 014°13'9 8.9
2014-Sep-01 18:34N 55°19' E 014°23'9 9.0
2014-Sep-01 17:33N 55°25' E 014°33'9 8.7
2014-Sep-01 16:33N 55°30' E 014°47'8 8.5
2014-Sep-01 15:34N 55°34' E 014°59'9 8.8
2014-Sep-01 14:33N 55°39' E 015°13'35 8.7
2014-Sep-01 10:33N 55°56' E 016°06'10 8.6
2014-Sep-01 09:25N 56°01' E 016°21'  
2014-Aug-29 01:15N 57°06' E 018°56'6 8.7
2014-Aug-29 00:33N 57°01' E 018°49'9 8.9
2014-Aug-28 23:34N 56°54' E 018°38'48 9.2
2014-Aug-28 18:16N 56°23' E 017°32'109 9.2
2014-Aug-28 06:26N 55°26' E 014°45'8 9.0
2014-Aug-28 05:34N 55°20' E 014°35'9 9.0
2014-Aug-28 04:33N 55°14' E 014°25'9 9.1
2014-Aug-28 03:34N 55°07' E 014°14'9 8.9
2014-Aug-28 02:33N 55°00' E 014°04'9 9.0
2014-Aug-28 01:33N 54°57' E 013°49'9 8.9
2014-Aug-28 00:34N 54°54' E 013°34'9 8.9
2014-Aug-27 23:34N 54°51' E 013°20'8 8.5
2014-Aug-27 22:34N 54°48' E 013°06'9 8.5
2014-Aug-27 21:34N 54°44' E 012°53'9 8.7
2014-Aug-27 20:33N 54°40' E 012°40'9 9.0
2014-Aug-27 19:34N 54°35' E 012°27'9 8.7
2014-Aug-27 18:34N 54°29' E 012°16'9 8.8
2014-Aug-27 17:34N 54°21' E 012°08'9 8.8
2014-Aug-27 16:33N 54°13' E 012°05'4 4.0
2014-Aug-27 15:30N 54°09' E 012°07'0 0.0
2014-Aug-27 14:33N 54°09' E 012°07'0 0.0
2014-Aug-27 13:30N 54°09' E 012°07'0 0.0
2014-Aug-27 12:33N 54°09' E 012°07'0 0.0
2014-Aug-27 11:27N 54°09' E 012°07'0 0.0
2014-Aug-27 10:33N 54°09' E 012°07'0 0.0
2014-Aug-27 09:27N 54°09' E 012°07'0 0.0
2014-Aug-27 08:30N 54°09' E 012°07'0 0.0
2014-Aug-27 07:30N 54°09' E 012°07'0 0.0
2014-Aug-27 06:06N 54°09' E 012°07'0 0.0
2014-Aug-27 05:33N 54°09' E 012°07'0 0.0
2014-Aug-27 04:15N 54°09' E 012°07'0 0.0
2014-Aug-27 03:33N 54°09' E 012°07'0 0.0
2014-Aug-27 02:33N 54°09' E 012°07'0 0.0
2014-Aug-27 01:33N 54°09' E 012°07'0 0.0
2014-Aug-27 00:33N 54°09' E 012°07'0 0.0
2014-Aug-26 23:33N 54°09' E 012°07'0 0.0
2014-Aug-26 22:33N 54°09' E 012°07'0 0.0
2014-Aug-26 21:33N 54°09' E 012°07'0 0.0
2014-Aug-26 20:30N 54°09' E 012°07'0 0.0
2014-Aug-26 19:30N 54°09' E 012°07'0 0.0
2014-Aug-26 18:32N 54°09' E 012°07'0 0.0
2014-Aug-26 17:11N 54°09' E 012°07'0 0.0
2014-Aug-26 15:26N 54°09' E 012°07'0 0.0
2014-Aug-26 14:32N 54°09' E 012°07'0 0.0
2014-Aug-26 13:32N 54°09' E 012°07'0 0.0
2014-Aug-26 12:32N 54°09' E 012°07'0 0.0
2014-Aug-26 11:20N 54°09' E 012°07'0 0.0
2014-Aug-26 10:14N 54°09' E 012°07'0 0.0
2014-Aug-26 09:29N 54°09' E 012°07'0 0.0
2014-Aug-26 07:29N 54°09' E 012°07'0 0.0
2014-Aug-26 06:32N 54°09' E 012°07'0 0.0
2014-Aug-26 05:32N 54°09' E 012°07'0 0.0
2014-Aug-26 04:32N 54°09' E 012°07'0 0.0
2014-Aug-26 03:29N 54°09' E 012°07'0 0.0
2014-Aug-26 02:29N 54°09' E 012°07'0 0.0
2014-Aug-26 00:32N 54°09' E 012°07'0 0.0
2014-Aug-25 23:29N 54°09' E 012°07'0 0.0
2014-Aug-25 21:32N 54°09' E 012°07'0 0.0
2014-Aug-25 18:23N 54°09' E 012°07'0 0.0
2014-Aug-25 17:23N 54°09' E 012°07'0 0.0
2014-Aug-25 16:14N 54°09' E 012°07'0 0.0
2014-Aug-25 15:14N 54°09' E 012°07'0 0.0
2014-Aug-25 14:32N 54°09' E 012°07'1 1.1
2014-Aug-25 13:33N 54°10' E 012°06'3 3.0
2014-Aug-25 12:34N 54°12' E 012°04'7 6.8
2014-Aug-25 11:33N 54°19' E 012°03'7 7.4
2014-Aug-25 10:33N 54°26' E 012°09'7 7.4
2014-Aug-25 09:33N 54°33' E 012°13'7 6.9
2014-Aug-25 08:33N 54°38' E 012°20'8 7.6
2014-Aug-25 07:32N 54°43' E 012°31'8 7.8
2014-Aug-25 06:33N 54°47' E 012°42'8 7.8
2014-Aug-25 05:33N 54°50' E 012°55'8 8.4
2014-Aug-25 04:33N 54°53' E 013°08'16 7.7
2014-Aug-25 02:32N 54°58' E 013°34'24 7.1
2014-Aug-24 23:07N 55°10' E 014°11'4 7.2
2014-Aug-24 22:30N 55°13' E 014°16'7 7.6
2014-Aug-24 21:31N 55°19' E 014°24'8 8.4
2014-Aug-24 20:33N 55°25' E 014°33'  

Dump ship's entire track history